Location: Unspecified
(0.0000°N, 0.0000°E)
Time: 07:12:06
(UTC+00:00)

Courier 1B - Pass Details

Date: 25 September 2023
Orbit: 962 x 1208 km, 28.3° (Epoch: 06 December)

Event Time Altitude Azimuth Distance (km) Brightness Sun altitude
Rises 23:11:38 0° 278° (W) 3,810 - -80.0°
Reaches altitude 10° 23:14:46 10° 267° (W) 2,817 - -80.7°
Maximum altitude 23:20:33 29° 209° (SSW) 1,723 - -82.2°
Drops below altitude 10° 23:26:09 10° 150° (SSE) 2,711 - -83.5°
Sets 23:29:07 0° 139° (SE) 3,644 - -84.3°
